This demonstration page uses our WeatherBlox Daily Observations layout. Learn more.

Left ArrowRight Arrow

36.19886, -115.1175

Hourly Observations for February 1, 2021

Temp ( °F °C ) Dew Point ( °F °C ) Humidity (%) Winds ( mph kmh ) Pressure ( in mb ) Visibility ( mi km ) Precip ( " mm )
12:53 am 00:53 Clear 50 10 29 -1.7 44 44 W 5 7 30.22 1023 10 16 N/A
1:53 am 01:53 Clear 50 10 28 -2.2 43 43 NW 6 9 30.22 1023 10 16 N/A
2:53 am 02:53 Clear 49 9.4 29 -1.7 46 46 WNW 7 11 30.21 1023 10 16 N/A
3:53 am 03:53 Clear 48 8.9 29 -1.7 48 48 NW 6 9 30.19 1022 10 16 N/A
4:53 am 04:53 Clear 47 8.3 30 -1.1 52 52 W 5 7 30.19 1022 10 16 N/A
5:53 am 05:53 Clear 48 8.9 29 -1.7 48 48 NW 3 6 30.19 1022 10 16 N/A
6:53 am 06:53 Sunny 49 9.4 29 -1.7 46 46 SSW 3 6 30.19 1023 10 16 N/A
7:53 am 07:53 Sunny 50 10 29 -1.7 44 44 WSW 3 6 30.20 1023 10 16 N/A
8:53 am 08:53 Sunny 54 12.2 29 -1.7 38 38 SSE 5 7 30.20 1023 10 16 N/A
9:53 am 09:53 Mostly Cloudy 57 13.9 27 -2.8 32 32 S 6 9 30.22 1023 10 16 N/A
10:53 am 10:53 Cloudy 58 14.4 26 -3.3 29 29 SE 6 9 30.21 1023 10 16 N/A
11:53 am 11:53 Partly Cloudy 58 14.4 26 -3.3 29 29 SSE 5 7 30.17 1022 10 16 N/A
12:53 pm 12:53 Sunny 60 15.6 25 -3.9 26 26 ENE 5 7 30.15 1021 10 16 N/A
1:53 pm 13:53 Sunny 61 16.1 24 -4.4 24 24 E 9 15 30.14 1021 10 16 N/A
2:53 pm 14:53 Mostly Cloudy 61 16.1 24 -4.4 24 24 ESE 7 11 30.14 1021 10 16 N/A
3:53 pm 15:53 Cloudy 61 16.1 25 -3.9 25 25 E 9 15 30.13 1020 10 16 N/A
4:53 pm 16:53 Cloudy 60 15.6 26 -3.3 27 27 E 7 11 30.13 1020 10 16 N/A
5:53 pm 17:53 Cloudy 59 15 26 -3.3 28 28 E 6 9 30.14 1021 10 16 N/A
6:53 pm 18:53 Cloudy 58 14.4 26 -3.3 29 29 SSE 3 6 30.14 1021 10 16 N/A
7:53 pm 19:53 Cloudy 58 14.4 27 -2.8 31 31 S 3 6 30.14 1021 10 16 N/A
8:53 pm 20:53 Mostly Cloudy 56 13.3 28 -2.2 34 34 N N/A 30.14 1021 10 16 N/A
9:53 pm 21:53 Cloudy 55 12.8 29 -1.7 37 37 N N/A 30.14 1021 10 16 N/A
10:53 pm 22:53 Cloudy 54 12.2 30 -1.1 40 40 NW 3 6 30.15 1021 10 16 N/A
11:53 pm 23:53 Partly Cloudy 52 11.1 31 -0.6 45 45 NW 3 6 30.14 1021 10 16 N/A

Powered by AerisWeather